2024-153A

Last updated on Sun Sep 29 2024 00:02:03 GMT+0000 (Coordinated Universal Time)

1 60745U 24153A 24272.55560416 .00017766 00000+0 10842-2 0 9999 2 60745 97.6176 29.9036 0016560 180.3726 179.7493 15.10264723 4582
UTC large
Height (km)
Speed (km/s)
/
Latitude / Longitude
Inclination (degrees)
Orbital Period (minutes)
Azimuth
Elevation
Range (km)
Doppler Factor

Next 0 passes for location: London (51.5072 / 0.1276)

Sorry there are no passes over London.